Wind_Speed
13 13 13 13 12 12 11 10 10 10 10 10 10 11 12 14 16 19 11 7 7 3 6 4 2 4 4 2 2 1 3 3 3 4 3 2 3 3 3 3 4 4 4 2 2 3 3 1 4 1 3 5 5 7
13 14 13 13 13 12 11 10 10 10 10 10 10 10 12 13 14 16 6 17 14 6 5 21 27 27 20 21 1 2 3 3 4 4 1 3 2 2 3 2 3 2 4 4 3 4 4 3 4 4 5 5 2 4
14 14 14 13 13 12 11 10 11 11 10 10 9 10 11 13 13 13 12 19 11 3 5 3 4 11 17 14 15 2 2 2 1 2 4 2 3 3 3 3 3 4 2 4 4 5 5 9 8 7 4 9 9 8
15 14 13 13 13 12 11 11 10 10 10 9 9 10 11 13 15 16 16 18 7 6 3 4 14 15 12 11 13 19 3 2 5 2 3 3 3 2 2 3 3 4 3 5 4 5 11 9 8 7 11 11 12 12
15 14 13 13 13 12 11 11 11 10 9 9 10 9 11 14 17 21 14 7 3 3 3 5 21 7 9 5 12 13 8 3 2 2 3 2 2 3 1 2 1 3 6 4 4 7 6 4 6 8 11 10 8 9
14 13 12 12 13 12 12 11 11 10 9 9 9 9 11 14 18 14 1 6 9 8 3 3 6 5 8 4 7 7 4 2 3 3 2 1 0 3 3 1 1 1 2 6 5 5 9 10 8 10 10 7 13 12
15 13 12 12 13 13 12 12 11 9 9 8 8 10 12 13 14 3 4 10 18 16 3 3 3 4 4 2 3 3 4 2 3 2 2 3 1 3 3 3 3 5 9 14 17 16 9 5 6 13 16 16 16 15
16 15 13 12 14 13 12 12 11 9 8 7 8 11 14 17 15 8 5 8 10 3 4 3 3 4 2 1 2 2 2 2 4 3 1 2 1 2 2 1 6 9 14 13 9 7 12 16 17 13 18 18 10 7
18 17 16 14 14 14 12 11 10 8 7 6 8 11 14 3 2 3 7 11 5 2 3 2 2 3 3 1 1 2 2 2 1 2 1 3 0 2 6 11 14 17 9 11 12 15 15 15 12 9 11 10 7 6
17 17 16 14 15 15 13 11 10 7 9 7 3 2 3 2 9 12 1 2 2 3 3 3 2 3 1 1 1 2 2 2 2 2 2 2 2 2 7 12 15 11 17 18 17 10 12 12 11 9 6 12 13 12
18 16 15 14 15 15 13 11 10 12 10 3 1 2 5 9 3 2 2 3 2 2 3 3 3 2 1 2 2 1 2 1 2 3 4 1 2 4 8 12 10 19 25 23 24 21 20 19 13 9 10 16 16 15
19 17 15 15 15 15 13 12 14 18 7 5 2 3 5 2 1 2 3 2 3 3 3 3 4 4 3 1 3 1 2 1 3 3 3 2 4 7 14 14 13 19 19 16 22 20 21 22 23 21 21 19 18 15
20 18 16 16 16 16 15 13 22 16 9 3 1 4 2 2 2 4 4 2 2 1 2 3 3 4 0 1 3 2 2 4 3 1 4 4 5 14 16 14 13 18 20 22 18 24 25 24 25 25 22 20 20 18
20 19 18 18 18 18 16 19 25 18 4 2 3 3 4 3 4 2 3 4 3 4 7 5 3 3 2 3 3 3 2 3 2 2 5 4 12 17 16 15 15 13 19 22 22 25 26 26 25 24 24 25 24 21
20 19 19 19 19 20 19 28 28 18 4 3 3 4 6 3 2 2 0 4 3 6 7 5 1 2 2 3 2 3 3 4 5 5 4 5 15 17 17 16 16 14 18 21 24 24 25 27 27 26 25 24 21 20
20 18 21 21 20 21 29 33 18 6 2 2 3 2 3 1 2 1 1 3 3 6 7 3 2 3 5 4 4 6 6 6 4 4 3 9 17 18 17 16 20 24 25 25 26 28 29 29 28 29 25 24 23 21
18 11 16 23 23 27 37 13 5 3 2 3 3 3 3 2 3 3 2 2 3 3 3 4 3 7 1 4 3 4 5 4 4 3 4 13 19 18 17 22 23 26 25 27 26 29 29 29 28 28 24 25 23 21
14 20 19 24 34 30 9 4 4 3 5 4 3 3 3 3 2 2 3 2 1 2 3 3 4 3 4 7 3 4 5 3 2 3 5 7 13 21 25 23 27 30 29 28 30 29 30 30 27 25 29 28 24 21
20 21 32 43 37 9 4 3 4 3 4 2 3 2 3 3 4 9 5 6 5 3 1 3 5 4 4 4 4 3 1 3 3 3 3 13 21 24 25 27 28 28 30 29 28 28 29 32 27 30 30 30 27 25
20 18 39 41 25 5 3 2 4 2 3 4 2 2 3 3 2 3 4 5 4 2 3 4 4 3 3 3 3 2 3 4 6 5 5 6 18 24 26 29 27 29 28 27 25 26 25 26 24 30 32 32 29 28
22 25 31 17 4 5 3 4 3 3 2 3 2 3 4 2 3 3 3 5 5 3 4 5 10 10 12 13 13 4 6 11 7 7 10 9 19 25 24 26 28 28 25 24 23 23 26 26 29 32 33 33 30 28
8 31 9 6 4 2 2 3 3 2 2 2 2 3 2 3 4 4 4 6 5 4 5 8 12 11 11 11 7 9 8 11 9 11 17 23 11 12 20 26 28 23 24 27 27 26 27 28 33 33 34 33 29 26
24 16 5 4 3 3 0 4 2 3 2 2 1 2 3 3 3 3 4 6 6 8 14 14 18 27 15 22 13 3 11 16 7 11 16 19 20 24 26 26 29 27 23 24 29 29 30 36 33 34 33 31 28 26
17 4 3 3 3 3 1 3 3 2 1 1 2 3 4 4 3 4 5 4 5 5 10 13 16 10 5 6 4 4 12 17 15 16 19 19 15 19 25 27 28 27 31 33 32 31 32 36 36 34 33 32 30 30
5 2 5 2 1 4 4 3 4 4 3 5 3 3 3 3 4 4 4 4 6 6 8 8 7 9 10 6 2 8 18 23 15 8 19 22 19 18 19 23 25 31 34 31 26 29 31 34 38 37 36 35 34 34
4 4 7 6 5 5 6 4 5 7 4 4 5 4 3 3 5 6 4 6 7 8 10 10 10 9 8 7 4 4 18 24 22 12 17 26 28 27 20 14 15 21 35 39 38 35 36 37 37 38 37 38 38 37
4 5 4 3 3 3 2 3 2 2 5 5 3 3 3 6 5 4 2 2 4 11 16 27 23 14 10 14 21 20 24 33 29 25 25 33 33 34 35 30 23 31 38 38 41 46 44 41 41 41 40 40 42 42
3 4 7 6 3 2 3 1 2 4 4 4 3 4 5 4 4 2 2 20 21 18 24 22 25 30 26 25 29 24 21 22 16 15 17 20 22 25 27 28 28 32 43 46 45 43 43 45 45 44 43 44 45 44
2 2 4 2 1 3 5 6 5 4 3 3 4 8 6 5 10 16 35 37 36 28 23 18 18 21 22 22 26 28 30 32 21 10 12 8 6 20 28 31 32 34 38 43 45 44 43 44 45 45 46 46 45 41
4 4 3 3 6 6 4 5 3 3 3 3 3 5 11 16 32 34 35 35 28 23 26 23 18 20 13 17 15 20 30 34 33 24 13 13 16 31 36 35 34 36 37 39 42 40 39 38 37 36 35 34 35 36
4 4 2 4 4 4 5 5 7 7 6 8 9 10 14 12 31 38 36 40 38 32 22 17 21 29 24 18 18 11 11 30 32 30 26 20 26 34 39 40 38 38 37 37 39 40 40 37 37 36 36 36 36 36
4 6 5 4 4 4 3 3 4 8 10 10 12 10 11 8 11 7 20 24 16 15 21 21 17 18 36 31 36 37 35 37 37 33 30 26 26 32 37 40 40 40 39 37 36 37 38 38 37 37 36 34 34 33
2 3 3 2 1 2 2 2 3 4 5 8 11 11 12 8 8 4 11 18 21 20 18 24 31 28 30 36 37 36 32 30 34 38 36 31 27 30 35 39 41 40 39 38 36 35 34 36 35 34 34 33 32 31
Wind_Direction
260 265 265 262 271 277 279 283 288 290 287 278 284 305 323 339 347 353 334 0 350 309 278 264 287 327 331 288 109 233 60 358 47 69 114 176 123 201 93 183 171 150 131 183 85 71 332 333 64 335 181 26 96 96
258 260 261 260 265 274 276 281 284 287 281 276 277 297 315 333 345 350 318 340 332 226 275 285 283 277 243 237 293 300 182 169 173 93 87 117 111 84 140 196 28 55 168 158 152 199 246 357 87 53 98 114 70 85
255 255 259 260 261 269 272 278 282 284 278 273 272 290 309 325 336 343 319 329 338 278 272 274 281 320 318 228 222 166 296 173 142 166 151 146 105 125 145 229 103 355 124 91 89 359 63 77 71 79 81 103 85 80
247 250 258 253 257 263 267 275 276 280 277 270 269 286 305 320 327 327 316 306 284 270 282 294 317 305 301 265 228 216 283 92 102 80 95 108 115 163 183 151 127 189 106 120 68 97 85 53 74 90 91 85 85 81
242 246 254 249 254 258 266 272 271 276 273 266 266 283 303 318 325 326 320 344 247 299 319 295 307 292 315 233 221 208 195 130 104 65 65 110 114 108 9 88 87 175 160 142 198 187 115 141 114 109 97 100 102 105
240 243 250 248 253 257 263 270 271 272 269 261 262 282 301 319 329 342 358 65 35 9 276 310 308 287 317 131 116 103 118 95 87 112 119 111 104 105 99 116 264 203 171 158 130 111 114 113 94 94 110 109 111 108
234 240 247 248 252 254 260 267 269 269 265 254 261 281 298 314 320 292 255 294 296 317 271 283 291 278 325 75 48 47 47 72 94 105 73 129 100 86 101 141 169 153 125 113 117 110 81 113 124 112 114 118 119 115
233 238 245 249 250 252 256 262 262 263 258 243 262 282 299 303 300 283 198 345 328 235 275 283 275 307 357 50 69 348 66 33 18 119 67 105 42 67 100 142 128 128 118 121 119 75 122 112 111 111 124 125 111 108
233 236 247 250 249 247 255 257 252 251 237 227 264 297 299 284 264 306 288 298 252 261 302 286 294 238 355 41 63 37 47 61 308 101 155 91 357 195 180 148 144 141 144 131 114 115 118 122 130 130 129 128 124 125
230 234 245 246 244 242 250 247 238 225 199 213 287 312 317 250 311 315 82 222 174 190 229 257 282 266 85 4 46 81 19 132 129 246 104 95 227 291 158 155 146 139 131 132 122 123 127 134 147 152 160 152 145 149
229 234 244 246 237 238 243 235 216 175 180 172 237 237 298 309 312 238 282 235 183 223 197 247 247 280 258 123 149 126 167 127 138 243 133 189 274 198 153 145 151 147 150 160 157 154 155 151 155 148 152 155 154 150
228 232 241 242 235 234 236 220 195 178 185 190 252 308 322 348 283 273 251 220 226 229 189 216 223 208 267 145 106 217 123 79 225 145 100 226 236 157 154 157 159 157 149 133 141 137 141 150 159 156 157 158 160 151
225 232 238 238 236 235 226 207 190 181 163 144 26 23 37 297 238 231 220 240 216 223 282 265 246 190 59 68 77 118 137 214 110 110 220 224 171 162 160 158 156 157 145 131 132 137 148 154 164 161 156 158 155 155
227 235 237 238 235 225 210 192 180 168 148 148 135 279 168 220 239 229 360 343 326 297 319 314 264 196 176 122 140 145 174 114 170 234 232 205 174 165 161 164 152 156 146 137 140 144 152 160 166 164 160 156 155 158
229 233 236 233 220 206 197 179 178 164 170 198 134 221 208 245 307 309 299 299 325 339 341 318 275 256 177 140 181 116 130 231 212 226 227 177 168 163 162 164 160 152 143 140 149 151 160 167 166 168 171 168 167 159
225 234 228 211 201 193 180 175 160 146 189 205 229 255 242 349 278 248 242 286 12 342 305 226 242 270 208 152 143 203 162 219 244 218 214 157 164 165 165 165 160 153 149 150 157 161 166 170 170 174 177 184 185 182
218 213 208 200 191 180 168 142 135 130 166 236 237 210 241 294 240 250 248 300 345 19 318 310 221 231 123 150 196 179 205 213 217 228 181 174 169 168 162 157 153 149 150 154 157 165 172 174 173 170 175 187 191 193
207 208 192 178 159 137 112 122 117 138 211 229 233 232 199 216 182 239 247 207 323 84 332 335 298 256 216 158 220 229 236 214 213 208 168 162 164 160 161 155 154 153 155 161 163 165 170 170 170 180 186 185 186 189
206 197 173 169 159 124 113 131 151 180 212 220 239 228 242 251 233 210 208 219 186 255 259 254 249 240 238 222 207 226 203 178 162 157 141 160 162 158 155 152 152 156 155 159 160 169 178 182 183 184 187 184 186 190
185 185 179 157 147 112 104 103 163 163 195 221 204 211 224 219 222 243 171 188 172 206 212 227 247 236 251 275 232 204 186 154 135 118 135 147 156 153 156 156 161 161 160 162 165 168 171 181 190 192 192 188 188 191
151 168 150 147 113 97 112 144 165 205 207 215 211 191 240 237 225 218 210 176 203 226 208 229 267 280 306 287 294 252 179 168 178 170 172 163 168 160 159 161 159 160 157 161 164 177 179 188 189 195 196 197 200 204
138 153 106 98 73 78 91 179 152 127 189 224 245 212 236 248 238 211 183 186 224 218 210 230 251 274 293 291 272 225 196 178 151 133 149 145 157 162 166 165 161 167 169 172 172 177 186 191 196 197 201 204 205 208
131 129 89 101 88 64 188 135 165 198 182 231 70 231 230 226 235 153 223 204 213 221 220 222 233 251 254 272 275 182 167 162 144 158 160 167 167 166 164 168 171 167 167 178 181 180 182 195 199 200 203 206 206 209
127 74 107 111 119 184 168 165 199 251 224 195 185 252 244 233 234 225 229 203 213 203 205 218 223 246 230 218 220 223 170 172 152 156 162 159 160 169 169 171 172 180 180 175 178 181 187 192 199 201 203 204 207 211
105 152 111 128 180 110 155 183 194 197 228 203 227 257 257 233 242 230 220 231 204 207 213 212 208 218 228 226 178 209 183 170 162 163 174 172 162 157 166 173 178 178 178 169 172 177 184 190 195 200 204 205 209 214
130 181 163 162 161 167 188 189 203 203 183 203 232 240 264 246 215 240 236 212 212 206 210 212 211 212 223 189 171 183 191 188 172 168 180 174 171 171 172 173 172 185 186 185 179 182 186 194 197 202 205 211 214 217
133 194 186 216 159 158 204 248 207 166 186 205 237 218 204 243 232 224 335 52 348 319 247 208 207 205 211 206 213 209 203 189 191 200 192 186 187 186 183 184 192 191 187 189 193 194 191 194 199 205 209 214 218 221
165 155 153 177 179 194 171 186 182 217 218 225 211 190 281 228 238 323 290 331 330 317 321 293 223 206 210 207 208 191 177 180 178 169 172 185 194 195 196 198 196 193 195 197 203 204 206 205 204 206 210 216 221 224
161 175 116 143 115 182 203 194 211 218 204 208 259 277 281 287 313 309 304 307 310 308 302 292 256 225 207 203 202 192 181 165 151 157 170 183 173 196 199 198 196 194 197 201 207 211 212 215 217 218 220 222 226 229
208 172 141 142 157 212 229 195 210 207 207 218 244 272 277 278 280 287 291 291 284 279 276 268 243 193 178 163 162 178 191 188 185 179 182 191 201 194 189 194 194 195 199 203 204 206 213 215 217 219 220 222 225 229
157 155 183 183 215 217 221 250 262 267 264 264 259 250 263 285 296 292 270 261 260 258 247 242 217 199 184 187 184 179 196 201 201 205 209 212 198 191 193 195 198 200 202 203 205 206 207 208 212 215 218 220 224 228
167 184 165 196 251 243 172 218 245 257 262 260 261 258 271 274 274 277 254 244 216 214 221 212 203 205 203 203 206 206 213 205 201 206 212 212 205 202 199 197 197 199 201 204 206 208 208 209 211 215 220 224 228 232
168 160 178 194 275 224 228 181 274 274 245 260 265 254 247 235 244 266 272 226 212 208 208 213 217 219 214 208 211 209 212 215 211 208 210 213 211 202 198 198 198 199 200 202 205 208 208 209 214 218 221 227 232 236
Height
842 843 844 844 844 845 845 845 845 845 845 844 845 844 843 840 837 834 830 829 829 818 807 802 801 800 797 793 787 784 787 785 793 800 805 812 811 812 813 811 812 819 835 855 853 852 855 821 819 826 833 840 841 842
839 840 840 841 842 842 843 843 843 843 843 843 843 843 841 839 836 833 830 827 824 822 807 800 794 791 791 788 791 788 785 788 790 803 810 814 812 819 818 822 814 825 826 839 841 843 829 823 823 830 833 840 844 844
835 836 837 838 839 840 840 841 841 841 841 841 842 841 840 838 836 834 829 826 822 816 803 795 787 785 783 783 785 787 787 784 786 788 801 806 802 820 819 822 818 821 821 831 834 833 833 832 834 835 838 840 845 849
832 833 834 835 836 837 838 838 839 839 839 839 839 840 839 836 834 832 829 826 826 822 809 793 786 783 781 780 781 782 783 782 784 787 795 801 804 812 820 815 821 824 821 832 839 838 834 839 840 843 845 848 851 854
828 830 831 832 833 834 835 836 836 837 837 838 838 838 837 835 832 828 824 822 822 826 813 802 789 780 778 777 778 780 782 783 786 789 794 801 809 811 820 819 822 819 825 832 836 831 831 840 844 847 849 854 856 857
824 827 828 829 831 832 833 833 834 835 836 836 836 836 835 833 830 826 825 824 823 822 817 804 792 783 778 777 777 778 780 782 786 791 801 804 802 808 816 819 813 814 815 814 825 826 832 841 847 851 853 856 858 860
821 823 825 827 828 829 830 831 832 833 834 834 835 835 834 832 831 831 830 826 823 823 817 804 790 780 777 777 779 780 781 784 786 796 799 802 804 805 814 822 811 815 815 817 822 830 843 845 852 854 856 859 861 864
818 820 822 824 825 827 828 829 830 831 832 833 834 833 832 830 828 825 823 823 822 822 819 806 793 788 779 782 783 784 785 787 792 798 801 802 805 807 810 811 814 816 818 823 827 828 835 846 853 857 859 862 865 867
814 816 819 820 822 824 826 827 828 830 831 832 833 832 829 827 826 824 822 821 820 823 815 805 795 791 781 785 786 786 788 792 797 797 798 802 810 805 803 810 812 814 817 827 831 835 843 849 856 859 862 865 867 869
810 813 815 817 819 821 823 825 827 829 831 832 834 832 831 825 824 822 820 818 819 817 816 807 800 794 786 788 789 790 794 798 798 799 801 802 805 801 801 803 806 812 817 824 833 844 848 853 856 859 861 863 866 868
806 809 811 813 816 818 821 823 826 829 831 832 832 832 827 825 824 821 820 814 811 807 807 800 796 792 784 785 787 793 798 800 797 799 799 807 813 801 802 804 808 811 815 819 822 832 840 845 852 857 861 864 866 869
802 805 808 810 812 815 818 821 824 828 830 831 831 829 827 826 824 823 815 810 806 800 796 798 791 791 786 784 785 794 791 798 791 801 805 808 797 792 797 802 807 811 816 822 827 835 842 847 850 854 858 862 867 871
798 802 804 807 809 812 815 819 823 828 830 832 832 834 831 833 827 816 808 805 798 796 794 791 786 783 785 784 789 789 786 796 798 798 796 793 786 787 792 799 806 811 815 823 832 837 843 847 851 854 858 863 867 871
794 797 800 803 806 809 813 817 822 827 831 833 837 841 836 832 823 809 806 807 805 798 793 790 786 777 781 782 788 782 789 793 797 800 786 782 777 781 788 795 803 810 816 824 831 837 843 847 851 856 860 863 867 869
789 793 795 797 801 805 810 816 821 826 829 830 832 842 825 818 815 812 812 810 805 801 797 790 781 781 778 777 785 787 789 784 786 781 776 770 770 776 785 792 799 808 816 824 830 836 842 847 851 856 861 864 867 870
785 788 788 792 797 802 808 815 819 823 826 828 826 823 818 819 816 811 809 807 803 801 796 791 780 779 770 775 777 775 778 774 768 768 763 762 766 773 780 788 797 805 813 821 828 833 839 844 849 854 860 864 867 869
780 781 783 788 794 800 805 810 816 820 824 823 820 817 818 819 818 813 808 804 804 805 793 790 781 774 770 770 772 772 767 760 759 759 758 757 761 768 777 787 796 804 812 818 826 832 837 843 849 854 858 861 865 868
774 776 780 786 793 795 802 809 814 820 821 818 818 813 814 812 811 810 806 805 805 805 809 797 801 779 762 760 764 757 751 755 755 755 755 758 764 770 778 785 793 801 809 816 822 830 836 841 845 849 853 858 863 867
769 773 778 783 786 794 801 808 810 812 811 812 810 810 810 806 802 803 803 802 803 804 803 801 787 768 756 750 744 744 748 751 753 754 756 758 763 770 778 786 793 801 807 814 821 826 832 837 841 845 850 856 859 863
769 770 773 779 786 791 801 807 808 809 810 807 806 806 804 800 795 792 795 798 799 799 798 789 772 757 749 741 739 740 742 745 748 754 759 762 765 771 776 783 790 798 806 813 820 825 832 838 841 845 848 853 857 860
767 771 776 780 787 790 795 799 804 805 803 803 800 802 798 794 793 791 792 792 795 789 784 780 765 752 750 745 742 739 738 739 740 743 748 759 764 768 776 783 790 797 803 811 817 824 827 831 835 841 846 850 855 858
764 771 777 783 787 791 794 796 797 797 800 798 798 794 793 791 786 783 781 783 778 773 770 763 757 754 752 746 741 735 735 738 740 743 748 754 761 767 773 778 786 793 799 804 810 817 823 827 832 838 843 848 853 857
765 772 780 784 791 796 799 796 796 797 800 796 795 792 787 781 775 770 771 764 761 755 751 750 747 744 749 745 742 734 734 736 741 744 748 752 757 762 769 775 781 787 794 801 806 811 817 823 829 835 840 846 850 854
767 773 780 786 789 803 795 794 793 793 792 794 796 792 780 774 761 760 750 746 742 737 739 739 740 740 740 740 737 735 732 736 740 744 748 752 756 761 766 771 776 784 787 794 801 808 813 818 825 831 836 841 845 849
770 779 781 788 788 791 792 792 788 788 795 785 783 782 774 763 754 747 735 731 726 726 726 727 729 729 729 728 730 731 731 733 737 742 745 749 755 762 766 770 774 777 783 790 797 802 808 813 819 824 829 834 838 842
770 777 778 779 785 784 788 793 793 784 780 784 776 769 759 754 745 744 727 715 714 712 713 715 716 719 721 720 723 726 726 729 734 738 741 744 748 752 759 764 769 775 777 781 787 795 801 808 813 818 823 827 831 834
781 781 770 770 770 773 777 774 771 775 781 782 768 761 756 748 729 721 718 716 716 712 706 701 703 706 707 711 713 715 718 720 723 726 732 738 741 745 749 753 759 763 770 776 780 784 791 798 805 810 815 819 822 825
758 757 771 767 769 767 775 771 772 774 763 759 755 758 742 725 716 715 714 713 714 714 709 703 697 694 698 701 705 709 715 720 725 729 734 739 742 745 747 751 755 759 763 768 774 780 786 791 795 800 805 809 812 817
755 754 758 775 767 763 766 767 764 757 752 753 758 754 738 728 721 717 708 707 705 703 701 697 693 694 693 696 701 703 706 712 719 727 731 735 738 740 744 748 751 754 759 764 769 774 778 783 789 793 796 801 806 811
754 752 756 768 771 766 757 752 750 748 747 745 743 738 732 722 718 717 709 703 700 695 693 692 689 690 691 692 697 702 704 705 706 710 718 723 722 727 732 739 746 750 754 759 764 770 776 781 785 790 795 799 802 805
744 748 752 753 758 749 745 742 741 741 740 736 733 733 723 715 702 698 693 685 682 682 683 681 679 678 681 685 687 692 698 699 702 705 708 711 716 721 725 730 737 743 748 753 758 763 768 774 778 782 786 790 793 797
741 747 753 755 749 740 739 740 737 733 729 727 722 717 715 715 709 689 664 662 665 666 664 667 668 667 668 673 678 680 682 688 696 701 705 708 712 716 721 726 730 736 742 748 752 757 762 767 771 776 780 784 788 792
740 740 738 740 742 739 737 736 730 723 717 710 703 700 701 705 697 676 656 651 650 650 653 654 657 660 662 665 669 674 680 684 688 692 698 703 707 712 716 721 726 732 737 742 747 752 758 762 767 771 775 778 782 785